| time (UTC) | temp F | wind direction | speed knots | gust knots | rain 1hr in | rain 24hr in | rain mn in | humidity % | barometer mb |
| 20260505211530 | 60 | 209 | 9.6 | 26.9 | 0.00 | 0.00 | 0.00 | 70 | 1005.5 |
| 20260505210028 | 60 | 150 | 13.9 | 23.5 | 0.00 | 0.00 | 0.00 | 70 | 1005.7 |
| 20260505204533 | 59 | 215 | 8.7 | 19.1 | 0.00 | 0.00 | 0.00 | 72 | 1005.7 |
| 20260505203034 | 59 | 194 | 7.8 | 19.1 | 0.00 | 0.00 | 0.00 | 73 | 1005.7 |
| 20260505201534 | 60 | 154 | 6.1 | 20.9 | 0.00 | 0.00 | 0.00 | 72 | 1005.8 |
| 20260505200032 | 59 | 200 | 7.8 | 19.1 | 0.00 | 0.00 | 0.00 | 73 | 1005.8 |
| 20260505194530 | 59 | 191 | 7.0 | 19.1 | 0.00 | 0.00 | 0.00 | 73 | 1006.2 |
| 20260505193030 | 59 | 133 | 5.2 | 16.5 | 0.00 | 0.00 | 0.00 | 74 | 1006.6 |
| 20260505191539 | 57 | 186 | 10.4 | 17.4 | 0.00 | 0.00 | 0.00 | 78 | 1006.6 |
| 20260505190037 | 52 | 161 | 9.6 | 21.7 | 0.00 | 0.00 | 0.00 | 85 | 1006.4 |
| 20260505184531 | 51 | 148 | 14.8 | 21.7 | 0.00 | 0.01 | 0.00 | 85 | 1006.5 |
| 20260505183030 | 51 | 156 | 16.5 | 20.9 | 0.00 | 0.01 | 0.00 | 85 | 1006.8 |
| 20260505181527 | 51 | 151 | 17.4 | 20.9 | 0.00 | 0.01 | 0.00 | 86 | 1007.0 |
| 20260505180037 | 51 | 144 | 15.6 | 20.9 | 0.00 | 0.01 | 0.00 | 85 | 1007.2 |
| 20260505174530 | 51 | 144 | 17.4 | 20.0 | 0.00 | 0.01 | 0.00 | 85 | 1007.5 |
| 20260505173030 | 51 | 146 | 16.5 | 20.9 | 0.00 | 0.01 | 0.00 | 85 | 1007.7 |
| 20260505171528 | 51 | 155 | 17.4 | 24.3 | 0.00 | 0.01 | 0.00 | 85 | 1007.8 |
| 20260505170034 | 53 | 141 | 10.4 | 19.1 | 0.00 | 0.01 | 0.00 | 79 | 1007.9 |
| 20260505164537 | 55 | 200 | 5.2 | 13.9 | 0.00 | 0.01 | 0.00 | 77 | 1008.4 |
| 20260505163032 | 56 | 192 | 5.2 | 17.4 | 0.00 | 0.01 | 0.00 | 76 | 1008.6 |
| 20260505161530 | 56 | 252 | 5.2 | 18.2 | 0.00 | 0.01 | 0.00 | 77 | 1008.6 |
| 20260505153037 | 58 | 146 | 7.0 | 17.4 | 0.00 | 0.01 | 0.00 | 74 | 1008.4 |
| 20260505151530 | 58 | 259 | 7.0 | 23.5 | 0.00 | 0.01 | 0.00 | 74 | 1008.6 |
| 20260505124530 | 50 | 157 | 13.9 | 15.6 | 0.00 | 0.01 | 0.00 | 83 | 1008.9 |
| 20260505123042 | 49 | 161 | 9.6 | 14.8 | 0.00 | 0.01 | 0.00 | 83 | 1009.0 |
| 20260505121532 | 50 | 165 | 9.6 | 14.8 | 0.00 | 0.01 | 0.00 | 83 | 1009.2 |
| 20260505120040 | 50 | 163 | 8.7 | 14.8 | 0.00 | 0.01 | 0.00 | 83 | 1009.1 |
| 20260505114530 | 51 | 187 | 7.8 | 12.2 | 0.00 | 0.01 | 0.00 | 81 | 1008.9 |
| 20260505113027 | 51 | 184 | 7.0 | 11.3 | 0.00 | 0.01 | 0.00 | 80 | 1008.8 |
| 20260505111533 | 50 | 190 | 7.8 | 10.4 | 0.00 | 0.01 | 0.00 | 81 | 1008.7 |
| 20260505101534 | 49 | 143 | 2.6 | 7.0 | 0.00 | 0.01 | 0.00 | 82 | 1008.9 |
| 20260505100032 | 49 | 190 | 1.7 | 7.0 | 0.00 | 0.01 | 0.00 | 82 | 1008.6 |
| 20260505094530 | 48 | 153 | 4.3 | 7.8 | 0.00 | 0.01 | 0.00 | 82 | 1008.5 |
| 20260505093027 | 48 | 169 | 5.2 | 9.6 | 0.00 | 0.01 | 0.00 | 82 | 1008.5 |
| 20260505091532 | 48 | 165 | 3.5 | 9.6 | 0.00 | 0.01 | 0.00 | 83 | 1008.2 |
| 20260505090030 | 48 | 163 | 4.3 | 7.0 | 0.00 | 0.01 | 0.00 | 83 | 1008.3 |
| 20260505084544 | 48 | 186 | 4.3 | 8.7 | 0.00 | 0.01 | 0.00 | 82 | 1008.3 |
| 20260505083046 | 48 | 197 | 2.6 | 6.1 | 0.00 | 0.01 | 0.00 | 82 | 1008.2 |
| 20260505081530 | 48 | 188 | 2.6 | 5.2 | 0.00 | 0.01 | 0.00 | 81 | 1008.2 |
| 20260505080043 | 49 | 171 | 2.6 | 6.1 | 0.00 | 0.01 | 0.00 | 81 | 1008.0 |
| 20260505074530 | 49 | 158 | 2.6 | 7.8 | 0.00 | 0.01 | 0.00 | 80 | 1008.0 |
| 20260505073040 | 49 | 174 | 3.5 | 7.8 | 0.00 | 0.01 | 0.00 | 80 | 1008.0 |
| 20260505071541 | 49 | 176 | 4.3 | 10.4 | 0.00 | 0.01 | 0.00 | 79 | 1008.0 |
| 20260505070040 | 49 | 232 | 3.5 | 11.3 | 0.00 | 0.01 | 0.00 | 79 | 1008.0 |
| 20260505064536 | 49 | 159 | 5.2 | 13.0 | 0.00 | 0.01 | 0.00 | 79 | 1008.0 |
| 20260505063038 | 49 | 199 | 6.1 | 9.6 | 0.00 | 0.01 | 0.00 | 79 | 1007.9 |
| 20260505061531 | 49 | 169 | 4.3 | 10.4 | 0.00 | 0.01 | 0.00 | 79 | 1007.9 |
| 20260505060051 | 49 | 190 | 4.3 | 11.3 | 0.00 | 0.01 | 0.00 | 79 | 1007.8 |
| 20260505054531 | 49 | 197 | 4.3 | 7.8 | 0.00 | 0.01 | 0.00 | 79 | 1007.8 |
| 20260505053037 | 50 | 201 | 4.3 | 10.4 | 0.00 | 0.01 | 0.00 | 79 | 1007.7 |
| 20260505051530 | 49 | 191 | 1.7 | 7.8 | 0.00 | 0.01 | 0.00 | 79 | 1007.5 |
| 20260505041536 | 48 | 164 | 2.6 | 6.1 | 0.00 | 0.01 | 0.00 | 82 | 1007.7 |
| 20260505040034 | 47 | 166 | 2.6 | 7.0 | 0.00 | 0.01 | 0.00 | 84 | 1007.7 |
| 20260505034530 | 46 | 0 | 0.0 | 0.9 | 0.00 | 0.01 | 0.01 | 84 | 1007.7 |
| 20260505033034 | 46 | 155 | 0.0 | 2.6 | 0.00 | 0.01 | 0.01 | 83 | 1007.6 |
| 20260505031532 | 46 | 0 | 0.0 | 2.6 | 0.00 | 0.01 | 0.01 | 84 | 1007.6 |
| 20260505030031 | 46 | 155 | 0.9 | 2.6 | 0.00 | 0.01 | 0.01 | 85 | 1007.7 |
| 20260505024528 | 45 | 0 | 0.0 | 3.5 | 0.00 | 0.01 | 0.01 | 85 | 1007.7 |
| 20260505023028 | 45 | 0 | 0.0 | 2.6 | 0.00 | 0.01 | 0.01 | 84 | 1007.5 |
| 20260505021531 | 46 | 157 | 0.0 | 0.9 | 0.00 | 0.01 | 0.01 | 82 | 1007.5 |
| 20260505020035 | 46 | 0 | 0.0 | 0.9 | 0.00 | 0.01 | 0.01 | 81 | 1007.5 |
| 20260505014535 | 46 | 0 | 0.0 | 0.9 | 0.00 | 0.01 | 0.01 | 81 | 1007.6 |
| 20260505013039 | 47 | 0 | 0.0 | 1.7 | 0.00 | 0.01 | 0.01 | 80 | 1007.4 |
| 20260505011535 | 48 | 0 | 0.0 | 1.7 | 0.00 | 0.01 | 0.01 | 79 | 1007.4 |
| 20260505010028 | 48 | 269 | 0.0 | 0.9 | 0.00 | 0.01 | 0.01 | 78 | 1007.3 |
| 20260505004541 | 48 | 0 | 0.0 | 1.7 | 0.00 | 0.01 | 0.01 | 78 | 1007.1 |
| 20260505003049 | 49 | 0 | 0.9 | 5.2 | 0.00 | 0.01 | 0.01 | 77 | 1006.8 |
| 20260505001528 | 49 | 201 | 5.2 | 13.0 | 0.00 | 0.01 | 0.01 | 77 | 1006.6 |
| 20260505000034 | 50 | 167 | 6.1 | 12.2 | 0.00 | 0.01 | 0.01 | 76 | 1006.2 |
| 20260504234530 | 51 | 213 | 7.0 | 10.4 | 0.00 | 0.01 | 0.01 | 73 | 1006.0 |
| 20260504233029 | 53 | 194 | 5.2 | 9.6 | 0.00 | 0.01 | 0.01 | 72 | 1005.7 |
| 20260504231527 | 54 | 168 | 6.1 | 9.6 | 0.00 | 0.01 | 0.01 | 69 | 1005.6 |
| 20260504230032 | 56 | 196 | 3.5 | 7.0 | 0.00 | 0.01 | 0.01 | 65 | 1005.4 |
| 20260504224530 | 58 | 167 | 4.3 | 7.0 | 0.00 | 0.01 | 0.01 | 62 | 1005.2 |
| 20260504223032 | 60 | 177 | 3.5 | 5.2 | 0.00 | 0.01 | 0.01 | 58 | 1005.4 |
| 20260504221529 | 61 | 199 | 1.7 | 6.1 | 0.00 | 0.01 | 0.01 | 57 | 1005.4 |
| 20260504220032 | 60 | 180 | 0.0 | 7.8 | 0.00 | 0.01 | 0.01 | 58 | 1005.3 |
| 20260504214529 | 60 | 188 | 1.7 | 8.7 | 0.00 | 0.01 | 0.01 | 57 | 1005.0 |
| 20260504213030 | 61 | 197 | 4.3 | 10.4 | 0.00 | 0.01 | 0.01 | 57 | 1004.9 |